Location: Goettingen
(51.5300°N, 9.9433°E)
Time: 08:26:00
(UTC+02:00)

ISS - Pass Details

Date: 17 May 2018
Orbit: 402 x 407 km, 51.6° (Epoch: 26 May)

Event Time Altitude Azimuth Distance (km) Brightness Sun altitude
Exits shadow 02:38:57 31° 261° (W) 738 -2.8 -16.9°
Maximum altitude 02:40:23 88° 171° (S) 408 -3.9 -16.9°
Drops below altitude 10° 02:43:40 10° 84° (E) 1,459 -0.7 -16.7°
Sets 02:45:45 0° 84° (E) 2,319 0.4 -16.6°
